Location: Allaines
(49.9632°N, 2.9458°E)
Time: 03:06:56
(UTC+00:00)

X-37B - Pass Details

Date: 26 June 2021
Orbit: 383 x 392 km, 45.0° (Epoch: 01 July)

Event Time Altitude Azimuth Distance (km) Brightness Sun altitude
Rises 20:46:55 0° 238° (WSW) 2,253 4.6 -6.1°
Reaches altitude 10° 20:49:10 10° 226° (SW) 1,400 3.4 -6.4°
Maximum altitude 20:51:51 26° 167° (SSE) 794 1.7 -6.6°
Drops below altitude 10° 20:54:33 10° 108° (ESE) 1,403 2.9 -6.9°
Enters shadow 20:55:54 - 99° (E) 1,900 3.6 -7.1°
